Helicity
140 148 147 148 169 184 205 217 203 190 186 179 158 154 169 170 185 179 161 125 101 63 61 42 54 64 50
129 137 151 161 174 204 229 236 227 208 177 162 147 135 135 154 195 187 169 154 82 76 44 40 42 49 43
135 166 173 197 229 237 219 247 228 186 170 146 135 129 124 181 211 178 160 132 114 91 58 60 48 56 48
129 147 173 201 226 233 227 229 233 218 191 207 154 153 144 167 158 128 114 99 79 70 74 58 65 59 56
97 149 181 211 224 218 233 257 235 225 229 216 163 156 176 137 141 103 80 84 77 66 69 63 59 61 58
103 131 151 181 200 211 253 262 213 174 210 162 160 143 133 125 130 80 64 61 69 66 67 63 59 59 57
81 117 137 155 180 195 189 221 237 183 230 170 150 125 133 133 100 69 54 51 54 64 66 64 64 57 58
97 103 123 129 126 137 154 190 182 158 160 142 126 122 126 112 96 59 45 55 54 58 63 67 57 50 54
151 165 169 152 132 149 165 178 174 150 102 135 116 137 114 95 79 95 51 64 60 54 45 56 49 42 52
133 137 142 128 135 120 116 140 146 114 107 127 125 104 81 85 105 122 92 69 52 43 35 41 36 71 80
120 112 110 105 101 108 119 102 94 88 72 106 82 99 98 61 78 105 120 96 91 94 64 61 64 83 74
122 110 109 94 82 86 91 87 76 50 51 78 54 55 74 78 53 82 85 76 71 76 96 106 84 57 53
115 113 97 79 74 68 75 79 85 78 90 87 72 55 57 74 90 77 109 55 64 72 82 79 75 79 77
106 97 89 82 69 64 66 68 66 61 71 69 65 62 66 71 77 74 83 82 79 84 82 74 76 76 69
97 91 84 83 78 73 69 74 71 68 55 62 65 65 62 80 58 68 71 74 72 81 87 73 58 56 56
94 90 86 88 86 93 77 67 68 69 75 73 70 72 89 47 63 76 69 73 71 67 69 71 58 43 54
98 94 96 92 89 103 88 84 72 73 77 89 84 110 143 98 82 34 76 82 78 79 89 84 79 67 55
Wind_Speed
51 43 44 47 47 41 37 31 32 31 30 29 29 30 30 29 26 25 19 16 13 12 14 14 18 18 20
53 50 51 51 48 44 40 37 35 32 29 29 30 28 29 26 24 22 18 15 15 12 14 17 19 17 20
57 50 49 47 47 45 41 40 35 31 31 29 27 27 24 25 25 24 21 18 14 14 18 23 20 19 19
57 57 54 50 47 48 44 40 37 34 31 33 27 25 26 27 28 26 21 17 14 17 21 24 24 19 18
60 54 54 51 49 45 42 38 36 35 34 32 27 30 32 31 29 27 24 18 20 21 22 25 22 19 18
56 56 54 50 47 44 39 38 42 30 29 27 29 31 33 33 34 30 26 24 25 26 24 25 20 19 18
52 52 51 46 44 40 36 35 38 35 29 27 27 32 36 37 36 33 29 27 26 25 24 27 20 21 19
49 49 46 44 37 38 34 31 33 30 24 33 32 35 34 35 34 34 27 26 22 21 27 30 23 22 23
48 50 47 44 36 34 33 27 30 30 25 35 36 33 32 32 31 38 23 21 21 27 39 30 26 25 28
45 46 45 43 40 36 33 28 28 31 24 26 28 26 31 31 29 29 24 24 25 36 41 30 25 27 27
43 43 43 41 40 39 36 31 27 28 25 19 24 24 28 35 28 26 25 27 30 37 36 27 23 27 31
42 42 42 41 37 39 38 34 32 29 22 19 24 19 23 27 25 26 33 33 37 41 37 32 32 31 33
44 44 39 38 34 35 36 34 33 30 27 25 27 24 23 29 36 33 28 35 43 44 40 38 36 37 39
41 40 37 35 33 33 34 34 32 30 30 29 29 27 28 32 36 38 27 30 39 41 40 42 42 41 41
38 37 35 33 32 31 32 31 32 32 29 32 31 33 39 40 43 36 30 35 41 37 37 42 44 42 41
35 36 34 31 33 31 32 32 32 33 33 32 33 37 44 47 25 37 34 38 44 43 42 45 50 46 41
33 33 33 32 31 31 30 33 32 32 32 27 30 37 41 44 39 19 30 34 37 37 37 37 44 43 40
Wind_Direction
319 324 320 314 315 317 320 323 324 325 328 329 331 331 333 337 341 343 354 1 358 0 4 0 341 353 351
321 320 316 315 314 313 314 318 318 319 324 326 326 327 329 333 337 339 343 349 337 346 346 336 329 342 341
319 321 319 318 316 313 313 313 316 316 319 321 324 326 327 329 329 327 329 336 335 338 332 313 316 325 326
322 319 317 316 313 310 307 311 310 316 316 319 319 325 323 321 317 314 320 331 334 324 315 309 307 315 316
326 323 319 315 312 312 305 306 307 310 311 314 317 319 316 313 309 305 310 318 316 312 309 303 304 304 304
332 327 322 318 315 311 308 306 304 305 306 305 311 311 310 305 302 298 302 306 306 302 300 295 297 294 294
335 334 332 329 324 314 308 305 306 314 308 304 311 308 307 300 296 294 295 300 302 300 293 284 287 284 284
340 338 335 334 327 324 318 313 316 316 313 310 313 309 307 300 296 294 294 297 300 298 285 277 278 278 281
345 343 342 340 336 330 322 316 312 314 310 314 316 312 306 301 298 294 295 297 299 289 272 274 273 277 281
343 344 345 344 342 332 322 316 319 319 315 313 316 316 310 305 299 301 295 296 295 280 267 272 274 278 285
343 344 345 345 343 337 331 326 320 319 332 322 320 313 311 306 309 298 295 295 287 273 269 277 279 281 287
343 342 341 340 343 335 331 329 328 326 328 322 322 320 313 311 314 302 287 282 275 268 272 280 283 286 290
337 339 344 341 343 337 332 333 333 333 324 321 315 316 316 306 296 296 288 279 269 270 275 279 283 287 291
338 340 343 341 339 336 330 327 327 326 323 320 314 310 307 299 293 287 291 289 274 274 279 282 286 290 292
335 337 340 338 336 331 329 328 322 321 322 313 313 304 296 293 285 287 290 285 280 282 285 287 288 292 295
332 331 332 335 332 330 323 320 318 315 314 312 305 302 299 291 289 287 288 285 280 280 285 288 290 296 299
328 327 327 327 327 326 322 315 314 313 313 316 308 302 298 291 296 291 288 288 287 285 286 292 297 302 307